2017-008AC

Last updated on Wed Mar 01 2017 00:15:03 GMT+0000 (Coordinated Universal Time)

1 41974U 17008AC 17059.75231346 .00001634 00000-0 75645-4 0 9999 2 41974 97.5092 121.3570 0007878 205.1586 154.9240 15.21550295 1848
UTC large
Height (km)
Speed (km/s)
/
Latitude / Longitude
Inclination (degrees)
Orbital Period (minutes)
Azimuth
Elevation
Range (km)
Doppler Factor

Next 0 passes for location: London (51.5072 / 0.1276)

Sorry there are no passes over London.